{"data":{"norad_id":62443,"intl_designator":"2024-251M","name":"STARLINK-32736","alt_names":[],"object_type":"PAYLOAD","status":"ACTIVE","operator":null,"country":"US","launch_date":"2024-12-29","launch_site_code":"AFWTR","launch_vehicle":null,"mission":null,"orbit_class":"UNKNOWN","rcs_meters":null,"size_class":null,"mass_kg":null,"dimensions":null,"purposes":["comms"],"wikipedia_slug":null,"has_3d_model":false,"image_url":null,"decayed_at":null,"tle_current":{"epoch":"2026-05-24T22:51:23.949792Z","epoch_age_seconds":89907,"freshness":"FRESH","line1":"1 62443U 24251M   26144.95236053  .00037507  00000+0  12714-2 0  9991","line2":"2 62443  53.1595 341.1398 0000971  93.7320 266.3792 15.30216998 79464","mean_motion":15.30216998,"eccentricity":9.71e-5,"inclination_deg":53.1595,"raan_deg":341.1398,"arg_perigee_deg":93.732,"mean_anomaly_deg":266.3792,"bstar":0.0012714,"rev_number":7946,"period_min":94.104300362765,"perigee_km":474.49886136717,"apogee_km":475.82977248292,"semimajor_km":6853.301316925,"source":"CELESTRAK","updated_at":"2026-05-25T13:38:19.659335Z"}}}